Regional Weather Roundup
Issued by NWS Charleston, SC

Current Version | Previous Version | Graphics & Text | Print | Product List | Glossary On
Versions: 1 2 3 4 5 6 7 8 9 10 11 12 13 14 15 16 17 18 19 20 21 22 23 24 25 26 27 28 29 30 31 32 33 34 35 36 37 38 39 40 41 42 43 44 45 46 47 48 49 50
000
ASUS42 KCHS 010811
RWRCHS

REGIONAL WEATHER ROUNDUP
NATIONAL WEATHER SERVICE CHARLESTON SC
300 AM EST SUN MAR 01 2015

NOTE: "FAIR" INDICATES FEW OR NO CLOUDS BELOW 12,000 FEET WITH NO
SIGNIFICANT WEATHER AND/OR OBSTRUCTIONS TO VISIBILITY.

NOT ALL STATIONS ARE QUALITY CONTROLLED BY THE NATIONAL
WEATHER SERVICE. USE DATA WITH CAUTION...ESPECIALLY
DEWPOINT OBSERVATIONS.

SCZ027-030-031-034>040-042>050-010900-
...SOUTHEAST SOUTH CAROLINA...

CITY           SKY/WX    TMP DP  RH WIND       PRES   REMARKS
N CHARLESTON   CLOUDY    40  35  83 NE10      30.50F WCI  33
WATERFRONT PRK   N/A     41 N/A N/A N17         N/A
MOUNT PLEASANT LGT RAIN  39  37  93 CALM      30.50F
PINOPOLIS      NOT AVBL
MONCKS CORNER  RAIN      41  36  81 N5        30.53F
SUMMERVILLE    RAIN      39  37  93 N7        30.52F WCI  34
BEAUFORT MCAS  CLOUDY    42  38  85 NE10      30.50F
BEAUFORT ARPT  CLOUDY    43  39  87 N12       30.49F
HILTON HEAD IS CLOUDY    45  39  81 N10       30.50S
WALTERBORO     RAIN      41  37  87 NE6       30.51F
ALLENDALE      LGT RAIN  39  37  93 CALM      30.50F

...SOUTHERN MIDLANDS AND PEE DEE...

CITY           SKY/WX    TMP DP  RH WIND       PRES   REMARKS
GEORGETOWN     NOT AVBL
KINGSTREE      NOT AVBL
ORANGEBURG     CLOUDY    38  30  73 NE10      30.53F WCI  31
BARNWELL       CLOUDY    41  32  70 NE9       30.52F
AIKEN          LGT RAIN  37  37 100 NE12      30.55F WCI  30
MANNING        CLOUDY    37  32  81 N8        30.54F WCI  31
COLUMBIA       CLOUDY    37  30  75 NE7       30.56F WCI  32
SUMTER         CLOUDY    36  30  80 N10       30.54F WCI  28
FLORENCE       CLOUDY    36  30  79 N7        30.57F WCI  30
MYRTLE BEACH   CLOUDY    39  28  65 N9        30.57F WCI  33
N MYRTLE BEACH CLOUDY    39  28  64 N6        30.55F WCI  35

$$

GAZ063-065-086>088-099>101-113>116-118-119-134>141-150-010900-
...SOUTHEAST GEORGIA...

CITY           SKY/WX    TMP DP  RH WIND       PRES   REMARKS
SAVANNAH ARPT  CLOUDY    43  38  82 NE9       30.48F
HUNTER AAF     CLOUDY    44  40  87 VRB6      30.44F
FORT STEWART   CLOUDY    44  40  86 NE8       30.45F
STATESBORO     LGT RAIN  40  40 100 NE3       30.49F
SYLVANIA       DRIZZLE   40  40 100 NE7       30.50F WCI  35
CLAXTON        CLOUDY    41  41 100 NE6       30.49F

...CSRA...CENTRAL AND FAR SOUTHEAST GEORGIA...

CITY           SKY/WX    TMP DP  RH WIND       PRES   REMARKS
THOMSON        CLOUDY    39  39 100 N7        30.59F WCI  34
AUGUSTA-BUSH   LGT RAIN  39  36  89 N9        30.54F FOG     WCI  33
AUGUSTA-DANIEL LGT RAIN  41  38  89 N6        30.54F FOG
SWAINSBORO     DRIZZLE   43  43 100 N3        30.51F
VIDALIA        DRIZZLE   43  43 100 NE7       30.49F
EASTMAN        CLOUDY    42  42 100 NE10      30.51F
HAZLEHURST     CLOUDY    44  44 100 NE8       30.46F
ALMA           NOT AVBL
WAYCROSS       CLOUDY    48  46  91 NE7       30.44F
JESUP          CLOUDY    46  45  93 NE6       30.46F
BAXLEY         CLOUDY    45  43  93 NE10      30.45F
BRUNSWICK      CLOUDY    46  45  93 NE13G18   30.44F
SAINT SIMONS   CLOUDY    47  45  93 NE14G26   30.43F FOG

$$

SCZ027-028-034-036>038-045-046-048>050-GAZ119-141-010900-
...LAKE AND SUPPLEMENTAL COASTAL OBSERVATIONS...

STATION/POSITION TIME  TEMP    WIND        PRES    WAVE   SWELL
                       AIR SEA DIR/SP/G            HT/PER HT/PER/DIR
                 (UTC) (F)     (DEG/KT/KT) (MB)    (FT/S) (FT/S/D)
UPR LAKE MARION  NOT AVBL
WINYAH BAY       NOT AVBL
LAKE MURRAY      0700   38      10/  2/  5 1035.2F
ACE BASIN NERRS  NOT AVBL
FORT PULASKI     0700   45 49   20/ 13/ 16 1033.0F
SAPELO ISLAND    0700   47      30/ 14     1031.0F

$$

ANZ835-935-AMZ111-154-330-350-352-354-370-450-454-472-010900-
...C-MAN AND BUOY OBSERVATIONS...

STATION/POSITION TIME  TEMP    WIND        PRES    WAVE   SWELL
                       AIR SEA DIR/SP/G            HT/PER HT/PER/DIR
                 (UTC) (F)     (DEG/KT/KT) (MB)    (FT/S) (FT/S/D)
BUOY 41004       0750   58 67   30/ 23/ 27 1030.4F  10/ 8
BUOY 41008       0750   51 52   30/ 21/ 27 1029.7F   8/ 7
FOLLY BEACH CMAN 0700   43      20/ 16/ 19 1034.0F
CAPERS NEARSHORE NOT AVBL
FRIPP NEARSHORE  0700   45      40/ 21/ 27 1030.9F


STATION/POSITION TIME  TEMP    WIND        PRES    WAVE   SWELL
                       AIR SEA DIR/SP/G            HT/PER HT/PER/DIR
                 (UTC) (F)     (DEG/KT/KT) (MB)    (FT/S) (FT/S/D)
5E ST. MARYS GA  0721      52                N/A     7/ 7   2/100/11
FRYING PAN BUOY  0750   52 61   40/ 21/ 25 1033.1F   8/ 7   3/100/ 9
BUOY 41025       NOT AVBL
CAPE LOOKOUT NC  0700   39      30/ 20/ 22 1036.0F
BUOY 41002       0750   66 70   80/ 21/ 25 1032.1F  10/ 9
BUOY 41010       0720   71 74   90/ 23/ 27 1027.5F
ST AUGUSTINE FL  0800   54     350/ 10/ 11 1028.8F


$$


USA.gov is the U.S. government's official web portal to all federal, state and local government web resources and services.